Current Version              Previous Version:    01  02  03  04  05  06  07  08  09  10  11  12  13  14  15  16  17  18  19  20  21  22  23  24  25  26  27  28  29  30  
   31  32  33  34  35  36  37  38  39  40  41  42  43  44  45  46  47  48  49  50  51  52  53  54  55  56  57  58  59  60  

[Printable]
828
ASUS44 KFWD 180615
RWRTX
NORTH TEXAS HOURLY WEATHER ROUNDUP
NATIONAL WEATHER SERVICE FORT WORTH TX
100 AM CDT FRI APR 18 2014

NOTE: "FAIR" INDICATES FEW OR NO CLOUDS BELOW 12,000 FEET WITH NO
SIGNIFICANT WEATHER AND/OR OBSTRUCTIONS TO VISIBILITY.

TXZ118-119-180700-
DALLAS/FORT WORTH METROPLEX

CITY           SKY/WX    TMP DP  RH WIND       PRES   REMARKS
DFW AIRPORT    LGT RAIN  57  54  89 NE5       30.21S FOG
6HR MIN TEMP:  57; 6HR MAX TEMP:  60; 6HR PCP:  0.06;

DALLAS LOVE    CLOUDY    58  53  84 N6        30.21S
6HR MIN TEMP:  58; 6HR MAX TEMP:  62; 6HR PCP:  0.04;

FTW MEACHAM    CLOUDY    58  54  86 E7        30.21S
6HR MIN TEMP:  57; 6HR MAX TEMP:  59; 6HR PCP:  0.05;

DAL-EXECUTIVE  CLOUDY    59  52  77 NE3       30.19F
6HR MIN TEMP:  59; 6HR MAX TEMP:  63; 6HR PCP: TRACE;

FTW-ALLIANCE   LGT RAIN  56  54  93 E3        30.21S
6HR MIN TEMP:  56; 6HR MAX TEMP:  57; 6HR PCP:  0.01;

FTW-NAS-JRB    LGT RAIN  60  52  74 NE8       30.26S
6HR MIN TEMP:  60; 6HR MAX TEMP:  61; 6HR PCP:  0.02;

FTW-SPINKS     MOCLDY    56  54  94 NW3       30.22F FOG
6HR MIN TEMP:  56; 6HR MAX TEMP:  62; 6HR PCP:  0.01;

ARLINGTON      CLOUDY    59  52  77 CALM      30.21S
6HR MIN TEMP:  59; 6HR MAX TEMP:  61; 6HR PCP:  0.01;

GRAND PRAIRIE  FAIR      57  52  82 CALM      30.23F
ADDISON        LGT RAIN  58  54  85 CALM      30.23R
6HR MIN TEMP:  58; 6HR MAX TEMP:  62;

MESQUITE       CLOUDY    57  52  84 N3        30.21S
6HR MIN TEMP:  57; 6HR MAX TEMP:  62;

LANCASTER      CLOUDY    59  49  70 NE3       30.21F
6HR MIN TEMP:  59; 6HR MAX TEMP:  63;

$$

TXZ091>094-102>105-117-120-121-131>134-180700-
NORTH CENTRAL TEXAS

CITY           SKY/WX    TMP DP  RH WIND       PRES   REMARKS
SHRMAN/DENISON CLOUDY    57  51  80 CALM      30.22S
6HR MIN TEMP:  57; 6HR MAX TEMP:  61;

GAINESVILLE    CLOUDY    55  53  90 W3        30.24F
6HR MIN TEMP:  55; 6HR MAX TEMP:  58;

BOWIE          CLOUDY    55  54  98 CALM      30.23S FOG
6HR MIN TEMP:  55; 6HR MAX TEMP:  56;

BRIDGEPORT     CLOUDY    55  55  99 CALM      30.25R FOG
6HR MIN TEMP:  55; 6HR MAX TEMP:  57; 6HR PCP:  0.06;

DECATUR        CLOUDY    55  54  95 CALM      30.23R
6HR MIN TEMP:  55; 6HR MAX TEMP:  55; 6HR PCP:  0.02;

DENTON         CLOUDY    56  54  93 SW3       30.21S
6HR MIN TEMP:  56; 6HR MAX TEMP:  58; 6HR PCP:  0.01;

MCKINNEY       CLOUDY    56  53  90 N6        30.21S
6HR MIN TEMP:  56; 6HR MAX TEMP:  61; 6HR PCP: TRACE;

GREENVILLE     CLOUDY    55  52  88 CALM      30.21R
ROCKWALL       CLOUDY    57  53  88 CALM      30.19S
6HR MIN TEMP:  57; 6HR MAX TEMP:  63;

TERRELL        CLOUDY    61  53  75 N3        30.20S
6HR MIN TEMP:  60; 6HR MAX TEMP:  65; 6HR PCP: TRACE;

WAXAHACHIE     CLOUDY    57  51  80 NE5       30.21F
6HR MIN TEMP:  57; 6HR MAX TEMP:  62; 6HR PCP:  0.01;

CLEBURNE       CLOUDY    57  55  94 NE9       30.23R
GRANBURY       DRIZZLE   58  55  89 CALM      30.23S
6HR MIN TEMP:  58; 6HR MAX TEMP:  60; 6HR PCP:  0.02;

$$

TXZ083>090-098>101-113>116-127>130-139>142-154-155-180700-
WESTERN NORTH TEXAS

CITY           SKY/WX    TMP DP  RH WIND       PRES   REMARKS
WICHITA FALLS  CLOUDY    54  52  93 CALM      30.23S
6HR MIN TEMP:  54; 6HR MAX TEMP:  57; 6HR PCP:  0.06;

WF-KICKAPOO    CLOUDY    56  53  90 CALM      30.24S
6HR MIN TEMP:  55; 6HR MAX TEMP:  57;

VERNON         CLOUDY    52  49  90 N5        30.25S
6HR MIN TEMP:  46; 6HR MAX TEMP:  77; 6HR PCP:  0.01;

ABILENE        CLOUDY    53  51  93 N7        30.23R FOG
6HR MIN TEMP:  54; 6HR MAX TEMP:  58; 6HR PCP: TRACE;

ABILENE-DYESS  CLOUDY    53  50  90 N7        30.22S
6HR MIN TEMP:  53; 6HR MAX TEMP:  57;

BRECKENRIDGE   CLOUDY    60  55  84 SE8       30.21R
6HR MIN TEMP:  60; 6HR MAX TEMP:  64;

GRAHAM         CLOUDY    55  53  92 E6        30.21S
6HR MIN TEMP:  55; 6HR MAX TEMP:  58;

MINERAL WELLS  CLOUDY    56  54  93 E3        30.21S
6HR MIN TEMP:  55; 6HR MAX TEMP:  58; 6HR PCP:  0.04;

STEPHENVILLE   CLOUDY    56  54  91 NE5       30.24S
6HR MIN TEMP:  56; 6HR MAX TEMP:  59;

COMANCHE       DRIZZLE   58  58 100 E5        30.21S
6HR MIN TEMP:  58; 6HR MAX TEMP:  60; 6HR PCP:  0.01;

BROWNWOOD      CLOUDY    59  57  94 CALM      30.21S FOG
COLEMAN        CLOUDY    55  52  89 N5        30.21R
6HR MIN TEMP:  55; 6HR MAX TEMP:  61;

$$

TXZ143>147-156>162-174-175-180700-
CENTRAL TEXAS

CITY           SKY/WX    TMP DP  RH WIND       PRES   REMARKS
WACO           CLOUDY    59  56  89 N7        30.19R
6HR MIN TEMP:  59; 6HR MAX TEMP:  63; 6HR PCP: TRACE;

WACO-MCGREGOR  CLOUDY    59  54  82 N6        30.21R
6HR MIN TEMP:  59; 6HR MAX TEMP:  63;

HILLSBORO      CLOUDY    59  52  78 N8        30.20R
6HR MIN TEMP:  59; 6HR MAX TEMP:  63;

CORSICANA      CLOUDY    63  53  70 NE3       30.19S
6HR MIN TEMP:  62; 6HR MAX TEMP:  69;

MEXIA          CLOUDY    61  54  77 CALM      30.18R
6HR MIN TEMP:  61; 6HR MAX TEMP:  66;

HEARNE         CLOUDY    61  59  94 CALM      30.17S
6HR MIN TEMP:  61; 6HR MAX TEMP:  69;

CAMERON        CLOUDY    61  60  96 CALM      30.17S
TEMPLE         CLOUDY    61  55  82 N5        30.21S
6HR MIN TEMP:  61; 6HR MAX TEMP:  64;

KILLEEN        CLOUDY    61  59  94 N3        30.18S
KILLEEN-SKYLRK FAIR      61  55  82 NE3       30.17R
6HR MIN TEMP:  61; 6HR MAX TEMP:  63;

FORT HOOD      CLOUDY    62  58  86 N5        30.18S
6HR MIN TEMP:  62; 6HR MAX TEMP:  65; 6HR PCP:  0.01;

GATESVILLE     MOCLDY    59  57  94 NE7       30.21S
HAMILTON       DRIZZLE   57  57 100 E6        30.21S
6HR MIN TEMP:  57; 6HR MAX TEMP:  62; 6HR PCP:  0.03;

LAMPASAS       CLOUDY    60  59  95 CALM      30.18S FOG
6HR MIN TEMP:  58; 6HR MAX TEMP:  62;

$$

TXZ095>097-106>112-122>126-135>138-148>153-164>167-180700-
EAST TEXAS

CITY           SKY/WX    TMP DP  RH WIND       PRES   REMARKS
PARIS          FAIR      54  45  71 N3        30.20S
6HR MIN TEMP:  54; 6HR MAX TEMP:  63;

SULPHUR SPRNGS FAIR      58  50  75 CALM      30.21F
6HR MIN TEMP:  57; 6HR MAX TEMP:  64;

CLARKSVILLE    FAIR      54  47  78 CALM      30.19F
6HR MIN TEMP:  54; 6HR MAX TEMP:  64;

MOUNT PLEASANT MOCLDY    55  48  76 NW3       30.20S
6HR MIN TEMP:  55; 6HR MAX TEMP:  64;

GILMER         CLOUDY    55  52  88 CALM      30.20S
MINEOLA        MOCLDY    57  52  82 CALM      30.20S
TYLER          CLOUDY    61  47  59 CALM      30.18F
6HR MIN TEMP:  61; 6HR MAX TEMP:  68;

LONGVIEW       CLOUDY    56  49  77 CALM      30.18S
6HR MIN TEMP:  56; 6HR MAX TEMP:  67;

MARSHALL       FAIR      53  50  88 CALM      30.20S
6HR MIN TEMP:  53; 6HR MAX TEMP:  66;

ATHENS         CLOUDY    59  50  72 CALM      30.18S
PALESTINE      CLOUDY    63  48  59 E3        30.20S
JACKSONVILLE   CLOUDY    57  47  68 CALM      30.19F
HENDERSON      MOCLDY    56  47  74 CALM      30.19F
6HR MIN TEMP:  55; 6HR MAX TEMP:  65;

NACOGDOCHES    CLOUDY    55  48  76 CALM      30.18R
6HR MIN TEMP:  54; 6HR MAX TEMP:  66;

LUFKIN         MOCLDY    59  51  75 CALM      30.17S
6HR MIN TEMP:  58; 6HR MAX TEMP:  69;

$$

SUPPLEMENTAL OBSERVATIONS (CENTRAL)

CITY           SKY/WX    TMP DP  RH WIND       PRES   REMARKS
LAKE TEXOMA      N/A     55  54  94 NW1         N/A
PAT MAYSE LAKE   N/A     54  48  82 N3          N/A
GREENVILLE       N/A     55  50  82 NW2         N/A
CEDAR HILL       N/A     55  50  82 CALM        N/A
PALESTINE        N/A     61  48  63 E1          N/A
LAKE LIMESTONE   N/A     63  54  72 NE5         N/A
MCGREGOR         N/A     59  55  88 N3          N/A